Big Delta, AK

1:46 AM AKDT on June 25, 2017 (GMT -0800)
Allen Army Air Field

Weather History for PABI - February, 2014

Change the Weather History Date:

Tuesday, February 18, 2014

  Actual Average Record
Temperature  
Mean Temperature -8 °F -  
Max Temperature 1 °F 17 °F 42 °F (2008)
Min Temperature -16 °F 3 °F -23 °F (2013)
Degree Days  
Heating Degree Days 72    
Moisture  
Dew Point -11 °F    
Average Humidity 80    
Maximum Humidity 91    
Minimum Humidity 64    
Precipitation  
Precipitation 0.00 in - - ()
Sea Level Pressure  
Sea Level Pressure 29.51 in    
Wind  
Wind Speed 2 mph (WSW)    
Max Wind Speed 5 mph    
Max Gust Speed -    
Visibility 6 miles    
Events Fog    
Averages and records for this station are not official NWS values.
T = Trace of Precipitation, MM = Missing Value Source: NWS Daily Summary

Daily Weather History Graph

Daily Weather History Graph

Search for Another Location

Airport or City:

Trip Planner

Search our weather history database for the weather conditions in past years. The results will help you decide how hot, cold, wet, or windy it might be!

Date:

Astronomy

Feb. 18, 2014 Rise Set
Actual Time 8:26 AM AKST 5:28 PM AKST
Civil Twilight 7:36 AM AKST 6:18 PM AKST
Nautical Twilight 6:41 AM AKST 7:13 PM AKST
Astronomical Twilight 5:46 AM AKST 8:08 PM AKST
Moon 11:10 PM AKST (2/18) 8:37 AM AKST (2/18)
Length of Visible Light 10h 41m
Length of Day
9h 01m
Waning Gibbous, 86% of the Moon is Illuminated
Feb 18
Waning Gibbous
Feb 22
Last Quarter
Feb 28
New
Mar 8
First Quarter
Mar 16
Full

Hourly Weather History & Observations

Time (AKST) Temp. Windchill Dew Point Humidity Pressure Visibility Wind Dir Wind Speed Gust Speed Precip Events Conditions
12:53 AM -2.9 °F -13.3 °F -9.0 °F 75% 29.48 in 10.0 mi West 4.6 mph - N/A   Mostly Cloudy
1:53 AM -6.0 °F -16.9 °F -11.0 °F 79% 29.50 in 10.0 mi WSW 4.6 mph - N/A   Clear
2:53 AM -8.0 °F -16.9 °F -13.0 °F 79% 29.52 in 10.0 mi SW 3.5 mph - N/A   Clear
3:53 AM -9.9 °F -19.2 °F -16.1 °F 74% 29.54 in 10.0 mi South 3.5 mph - N/A   Clear
4:11 AM -9.9 °F - -14.1 °F 82% 29.38 in 2.5 mi Calm Calm - N/A   Partly Cloudy
4:15 AM -11.0 °F - -14.1 °F 86% 29.38 in 1.0 mi Calm Calm - N/A   Mist
4:23 AM -11.0 °F - -14.1 °F 86% 29.38 in 0.8 mi Calm Calm - N/A   Mist
4:32 AM -9.9 °F - -13.0 °F 86% 29.38 in 0.8 mi Calm Calm - N/A   Mist
4:46 AM -11.0 °F -20.4 °F -16.1 °F 78% 29.38 in 1.0 mi SSW 3.5 mph - N/A   Haze
4:53 AM -9.0 °F -18.2 °F -13.0 °F 83% 29.55 in 0.5 mi SSW 3.5 mph - N/A Fog Light Freezing Fog
5:26 AM -9.9 °F -19.2 °F -14.1 °F 82% 29.40 in 1.0 mi South 3.5 mph - N/A   Mist
5:33 AM -11.9 °F - -16.1 °F 82% 29.40 in 3.0 mi Calm Calm - N/A   Overcast
5:50 AM -11.2 °F - -16.6 °F 77% 29.40 in 10.0 mi Calm Calm - N/A   Scattered Clouds
5:53 AM -11.0 °F - -16.1 °F 78% 29.57 in 10.0 mi Calm Calm - N/A   Partly Cloudy
6:53 AM -13.0 °F - -18.0 °F 78% 29.59 in 10.0 mi Calm Calm - N/A   Scattered Clouds
7:53 AM -11.0 °F - -16.1 °F 78% 29.60 in 7.0 mi Calm Calm - N/A   Mostly Cloudy
8:53 AM -16.1 °F - -18.9 °F 87% 29.62 in 0.2 mi Calm Calm - N/A Fog Light Freezing Fog
9:43 AM -13.0 °F - -16.1 °F 86% 29.43 in 1.0 mi Calm Calm - N/A   Overcast
9:53 AM -11.9 °F - -17.0 °F 78% 29.61 in 2.5 mi Calm Calm - N/A   Haze
10:00 AM -9.9 °F - -15.0 °F 78% 29.44 in 0.8 mi Calm Calm - N/A   Haze
10:08 AM -9.0 °F - -11.9 °F 87% 29.44 in 0.2 mi Calm Calm - N/A Fog Light Freezing Fog
10:53 AM -7.1 °F - -9.0 °F 91% 29.60 in 0.2 mi Calm Calm - N/A Fog Light Freezing Fog
11:21 AM -5.1 °F - -9.0 °F 83% 29.44 in 1.0 mi Calm Calm - N/A   Overcast
11:25 AM -5.1 °F - -9.0 °F 83% 29.44 in 3.0 mi Calm Calm - N/A   Mostly Cloudy
11:32 AM -4.0 °F - -7.1 °F 87% 29.44 in 10.0 mi Calm Calm - N/A   Mostly Cloudy
11:40 AM -4.0 °F - -8.0 °F 83% 29.44 in 10.0 mi Calm Calm - N/A   Mostly Cloudy
11:53 AM -2.9 °F - -8.0 °F 79% 29.60 in 10.0 mi Calm Calm - N/A   Mostly Cloudy
12:53 PM -0.0 °F - -6.0 °F 76% 29.59 in 10.0 mi Calm Calm - N/A   Mostly Cloudy
1:53 PM -0.9 °F -11.0 °F -5.1 °F 83% 29.60 in 10.0 mi NNW 4.6 mph - N/A   Mostly Cloudy
2:53 PM 1.0 °F -6.7 °F -5.1 °F 75% 29.59 in 10.0 mi WNW 3.5 mph - N/A   Scattered Clouds
3:53 PM 1.0 °F -6.7 °F -4.0 °F 79% 29.58 in 10.0 mi NW 3.5 mph - N/A   Scattered Clouds
4:53 PM -0.0 °F -7.9 °F -5.1 °F 79% 29.58 in 10.0 mi NNW 3.5 mph - N/A   Scattered Clouds
5:53 PM -2.0 °F - -7.1 °F 79% 29.58 in 10.0 mi Calm Calm - N/A   Scattered Clouds
6:53 PM -4.0 °F -14.6 °F -8.0 °F 83% 29.59 in 10.0 mi NW 4.6 mph - N/A   Scattered Clouds
7:53 PM -5.1 °F -13.6 °F -9.9 °F 80% 29.59 in 10.0 mi West 3.5 mph - N/A   Scattered Clouds
8:53 PM -4.0 °F -12.4 °F -9.0 °F 79% 29.60 in 10.0 mi WSW 3.5 mph - N/A   Mostly Cloudy
9:34 PM -4.0 °F - -8.0 °F 83% 29.41 in 2.5 mi Calm Calm - N/A   Partly Cloudy
9:45 PM -5.1 °F - -9.9 °F 80% 29.41 in 8.0 mi Calm Calm - N/A   Scattered Clouds
9:53 PM -6.0 °F - -9.9 °F 83% 29.60 in 10.0 mi Calm Calm - N/A   Partly Cloudy
10:53 PM -4.0 °F - -9.0 °F 79% 29.59 in 10.0 mi Calm Calm - N/A   Clear
11:05 PM -2.9 °F -11.2 °F -8.0 °F 79% 29.42 in 4.0 mi SSW 3.5 mph - N/A   Haze
11:53 PM -7.1 °F - -11.9 °F 79% 29.59 in 10.0 mi Calm Calm - N/A   Clear